Content
SEND FEEDBACK

Daily
Averages
Monthly
Summary
Germany

LUBECK, GERMANY


Home > Europe > Germany
Elevation: 56 feet     Latitude: 54 00N     Longitude: 011 12E

WEATHER
 
SELECT A DAY
Number of Records: 63,927;   Date Range: 7/3/96 - 10/24/14
 
SHARE

PRINT THIS DATA

[ ← Previous Day ]
WEATHER ALMANAC - FEBRUARY 10, 2013
[ Next Day → ]
[ °C ]   °F
Weather ElementAverageHighLow
Temperature27.5 °F30.2 °F (1:50 pm)24.8 °F (8:50 am)
Dewpoint24.4 °F26.6 °F (10:50 am)23 °F (8:50 am)
Humidity88.4 %100 % (9:20 am)80 % (1:50 pm)
Barometer29.98 in30.01 in (8:50 am)29.95 in (3:20 pm)
Wind Speed7.4 mph11.5 mph (5:50 pm)
Weather ElementAverage
Visibility4 mi
Wind DirectionSE (135.5 °)

Weather ElementTotal
Precipitation---
Heating Degree Days37.5 (Base 65)
Averaged from 20 records on February 10, 2013
WEATHER CONDITIONS BREAKOUT
WIND DIRECTION BREAKOUT
WEATHER BY HOUR - FEBRUARY 10, 2013
[ °C ]   °F
Local TimeTemperatureDewpointHumidityBarometerVisibilityWind DirectionWind SpeedGust SpeedPrecipitationEventsConditions
8:50 AM24.8 °F23.0 °F93 %30.01 in1.9 miSouth (170°)4.6 mphMostly Cloudy
9:20 AM24.8 °F24.8 °F100 %30.01 in1.2 miSouth (180°)4.6 mphMostly Cloudy
9:50 AM24.8 °F24.8 °F100 %30.01 in1.9 miVariable3.5 mphMostly Cloudy
10:20 AM26.6 °F24.8 °F93 %30.01 in1.9 miSE (130°)4.6 mphOvercast
10:50 AM26.6 °F26.6 °F100 %30.01 in2.2 miSSE (160°)4.6 mphOvercast
11:20 AM26.6 °F24.8 °F93 %30.01 in2.2 miSSE (150°)9.2 mphOvercast
11:50 AM26.6 °F24.8 °F93 %30.01 in3.1 miSSE (160°)6.9 mphMostly Cloudy
12:20 PM26.6 °F24.8 °F93 %30.01 in2.8 miSSE (150°)8.1 mphMostly Cloudy
12:50 PM28.4 °F24.8 °F86 %30.01 in3.7 miSSE (160°)9.2 mphMostly Cloudy
1:20 PM28.4 °F24.8 °F86 %29.98 in4.3 miSSE (160°)9.2 mphMostly Cloudy
1:50 PM30.2 °F24.8 °F80 %29.98 in5.0 miSSE (150°)9.2 mphMostly Cloudy
2:20 PM30.2 °F24.8 °F80 %29.98 in5.6 miSE (130°)6.9 mphMostly Cloudy
2:50 PM30.2 °F24.8 °F80 %29.98 in5.6 miSE (140°)6.9 mphMostly Cloudy
3:20 PM30.2 °F24.8 °F80 %29.95 in5.6 miSE (140°)6.9 mphMostly Cloudy
3:50 PM28.4 °F24.8 °F86 %29.95 in6.2 miESE (120°)6.9 mphMostly Cloudy
4:20 PM28.4 °F24.8 °F86 %29.95 in6.2 miESE (120°)6.9 mphScattered Clouds
4:50 PM28.4 °F23.0 °F80 %29.95 in6.2 miEast (100°)5.8 mphPartly Cloudy
5:20 PM26.6 °F23.0 °F86 %29.95 in5.0 miESE (120°)10.4 mphScattered Clouds
5:50 PM26.6 °F23.0 °F86 %29.95 in5.0 miSE (130°)11.5 mphMostly Cloudy
6:20 PM26.6 °F23.0 °F86 %29.95 in5.0 miSE (140°)11.5 mphMostly Cloudy
Hourly data recorded from EDHL, located miles away from Lubeck, Germany







STORIES FROM OUR PARTNERS